date,time,SUV Intensity [MED/Hr],UV Index,Daily total [MED],Since Last [MED]
12/04/2022,00:07:50,-0.001,0.0,0.0,0.0
12/04/2022,00:08:49,0.001,0.0,0.0,0.0
12/04/2022,00:09:49,-0.001,0.0,0.0,0.0
12/04/2022,00:10:49,0.001,0.0,0.0,0.0
12/04/2022,00:11:49,-0.000,0.0,0.0,0.0
12/04/2022,00:12:49,0.000,0.0,0.0,0.0
12/04/2022,00:13:49,0.000,0.0,0.0,0.0
12/04/2022,00:14:50,0.000,0.0,0.0,0.0
12/04/2022,00:15:49,0.000,0.0,0.0,0.0
12/04/2022,00:16:49,-0.001,0.0,0.0,0.0
12/04/2022,00:17:49,-0.000,0.0,0.0,0.0
12/04/2022,00:18:49,0.001,0.0,0.0,0.0
12/04/2022,00:19:49,0.000,0.0,0.0,0.0
12/04/2022,00:20:49,0.001,0.0,0.0,0.0
12/04/2022,00:21:49,0.000,0.0,0.0,0.0
12/04/2022,00:22:49,0.000,0.0,0.0,0.0
12/04/2022,00:23:58,0.000,0.0,0.0,0.0
12/04/2022,00:24:49,0.000,0.0,0.0,0.0
12/04/2022,00:25:49,0.000,0.0,0.0,0.0
12/04/2022,00:26:57,0.000,0.0,0.0,0.0
12/04/2022,00:27:48,0.000,0.0,0.0,0.0
12/04/2022,00:28:49,0.001,0.0,0.0,0.0
12/04/2022,00:29:49,0.000,0.0,0.0,0.0
12/04/2022,00:30:49,0.000,0.0,0.0,0.0
12/04/2022,00:31:49,0.000,0.0,0.0,0.0
12/04/2022,00:32:49,0.000,0.0,0.0,0.0
12/04/2022,00:33:49,-0.000,0.0,0.0,0.0
12/04/2022,00:34:49,0.001,0.0,0.0,0.0
12/04/2022,00:35:49,0.000,0.0,0.0,0.0
12/04/2022,00:36:49,0.000,0.0,0.0,0.0
12/04/2022,00:37:49,0.000,0.0,0.0,0.0
12/04/2022,00:38:49,0.001,0.0,0.0,0.0
12/04/2022,00:39:49,-0.001,0.0,0.0,0.0
12/04/2022,00:40:49,0.000,0.0,0.0,0.0
12/04/2022,00:41:49,0.000,0.0,0.0,0.0
12/04/2022,00:42:49,0.000,0.0,0.0,0.0
12/04/2022,00:43:48,0.001,0.0,0.0,0.0
12/04/2022,00:44:49,0.001,0.0,0.0,0.0
12/04/2022,00:45:49,0.000,0.0,0.0,0.0
12/04/2022,00:46:49,0.001,0.0,0.0,0.0
12/04/2022,00:47:49,0.000,0.0,0.0,0.0
12/04/2022,00:48:51,0.000,0.0,0.0,0.0
12/04/2022,00:49:48,0.000,0.0,0.0,0.0
12/04/2022,00:50:50,0.000,0.0,0.0,0.0
12/04/2022,00:51:49,0.001,0.0,0.0,0.0
12/04/2022,00:52:49,0.001,0.0,0.0,0.0
12/04/2022,00:53:49,0.000,0.0,0.0,0.0
12/04/2022,00:54:49,0.000,0.0,0.0,0.0
12/04/2022,00:55:49,0.001,0.0,0.0,0.0
12/04/2022,00:56:49,0.000,0.0,0.0,0.0
12/04/2022,00:57:49,0.002,0.0,0.0,0.0
12/04/2022,00:58:49,0.000,0.0,0.0,0.0
12/04/2022,00:59:49,0.001,0.0,0.0,0.0
12/04/2022,01:00:41,0.001,0.0,0.0,0.0
12/04/2022,01:01:51,0.002,0.0,0.0,0.0
12/04/2022,01:02:49,0.001,0.0,0.0,0.0
12/04/2022,01:03:49,-0.000,0.0,0.0,0.0
12/04/2022,01:04:57,0.001,0.0,0.0,0.0
12/04/2022,01:05:49,0.000,0.0,0.0,0.0
12/04/2022,01:06:49,0.000,0.0,0.0,0.0
12/04/2022,01:07:49,0.000,0.0,0.0,0.0
12/04/2022,01:08:49,0.000,0.0,0.0,0.0
12/04/2022,01:09:49,0.001,0.0,0.0,0.0
12/04/2022,01:10:49,-0.000,0.0,0.0,0.0
12/04/2022,01:11:57,0.001,0.0,0.0,0.0
12/04/2022,01:12:48,-0.001,0.0,0.0,0.0
12/04/2022,01:13:49,0.001,0.0,0.0,0.0
12/04/2022,01:14:49,-0.001,0.0,0.0,0.0
12/04/2022,01:15:49,0.002,0.0,0.0,0.0
12/04/2022,01:16:49,0.000,0.0,0.0,0.0
12/04/2022,01:17:49,0.001,0.0,0.0,0.0
12/04/2022,01:18:49,0.000,0.0,0.0,0.0
12/04/2022,01:19:49,0.001,0.0,0.0,0.0
12/04/2022,01:21:01,0.001,0.0,0.0,0.0
12/04/2022,01:22:58,0.000,0.0,0.0,0.0
12/04/2022,01:24:50,0.001,0.0,0.0,0.0
12/04/2022,01:25:50,0.002,0.0,0.0,0.0
12/04/2022,01:26:49,0.000,0.0,0.0,0.0
12/04/2022,01:27:49,0.000,0.0,0.0,0.0
12/04/2022,01:28:49,0.001,0.0,0.0,0.0
12/04/2022,01:29:58,0.002,0.0,0.0,0.0
12/04/2022,01:31:49,0.001,0.0,0.0,0.0
12/04/2022,01:32:49,0.001,0.0,0.0,0.0
12/04/2022,01:33:49,0.001,0.0,0.0,0.0
12/04/2022,01:34:50,-0.000,0.0,0.0,0.0
12/04/2022,01:35:49,0.001,0.0,0.0,0.0
12/04/2022,01:36:49,0.002,0.0,0.0,0.0
12/04/2022,01:37:49,0.002,0.0,0.0,0.0
12/04/2022,01:38:49,0.001,0.0,0.0,0.0
12/04/2022,01:39:49,0.002,0.0,0.0,0.0
12/04/2022,01:40:49,0.001,0.0,0.0,0.0
12/04/2022,01:41:49,0.001,0.0,0.0,0.0
12/04/2022,01:42:57,0.001,0.0,0.0,0.0
12/04/2022,01:44:50,0.000,0.0,0.0,0.0
12/04/2022,01:45:49,0.000,0.0,0.0,0.0
12/04/2022,01:46:49,0.002,0.0,0.0,0.0
12/04/2022,01:47:49,0.002,0.0,0.0,0.0
12/04/2022,01:48:49,0.001,0.0,0.0,0.0
12/04/2022,01:49:49,0.001,0.0,0.0,0.0
12/04/2022,01:50:58,0.000,0.0,0.0,0.0
12/04/2022,01:52:49,0.000,0.0,0.0,0.0
12/04/2022,01:53:49,0.001,0.0,0.0,0.0
12/04/2022,01:54:49,0.001,0.0,0.0,0.0
12/04/2022,01:55:49,0.001,0.0,0.0,0.0
12/04/2022,01:56:49,0.001,0.0,0.0,0.0
12/04/2022,01:57:49,0.001,0.0,0.0,0.0
12/04/2022,01:58:49,0.002,0.0,0.0,0.0
12/04/2022,01:59:49,0.001,0.0,0.0,0.0
12/04/2022,02:00:59,0.001,0.0,0.0,0.0
12/04/2022,02:02:49,0.002,0.0,0.0,0.0
12/04/2022,02:03:49,0.002,0.0,0.0,0.0
12/04/2022,02:04:49,0.001,0.0,0.0,0.0
12/04/2022,02:05:49,0.002,0.0,0.0,0.0
12/04/2022,02:06:49,0.001,0.0,0.0,0.0
12/04/2022,02:07:57,0.003,0.0,0.0,0.0
12/04/2022,02:08:49,0.001,0.0,0.0,0.0
12/04/2022,02:09:50,0.001,0.0,0.0,0.0
12/04/2022,02:10:49,0.001,0.0,0.0,0.0
12/04/2022,02:11:49,0.001,0.0,0.0,0.0
12/04/2022,02:12:50,0.002,0.0,0.0,0.0
12/04/2022,02:13:49,0.003,0.0,0.0,0.0
12/04/2022,02:15:06,0.002,0.0,0.0,0.0
12/04/2022,02:16:49,0.001,0.0,0.0,0.0
12/04/2022,02:17:49,0.001,0.0,0.0,0.0
12/04/2022,02:18:49,0.002,0.0,0.0,0.0
12/04/2022,02:19:49,0.002,0.0,0.0,0.0
12/04/2022,02:20:49,0.000,0.0,0.0,0.0
12/04/2022,02:21:58,0.001,0.0,0.0,0.0
12/04/2022,02:22:49,0.002,0.0,0.0,0.0
12/04/2022,02:23:49,0.002,0.0,0.0,0.0
12/04/2022,02:24:49,0.000,0.0,0.0,0.0
12/04/2022,02:25:50,0.001,0.0,0.0,0.0
12/04/2022,02:26:49,0.001,0.0,0.0,0.0
12/04/2022,02:27:49,0.002,0.0,0.0,0.0
12/04/2022,02:28:49,0.001,0.0,0.0,0.0
12/04/2022,02:29:49,0.001,0.0,0.0,0.0
12/04/2022,02:30:49,0.002,0.0,0.0,0.0
12/04/2022,02:31:57,0.000,0.0,0.0,0.0
12/04/2022,02:33:50,0.002,0.0,0.0,0.0
12/04/2022,02:34:49,0.002,0.0,0.0,0.0
12/04/2022,02:35:49,0.002,0.0,0.0,0.0
12/04/2022,02:36:50,0.002,0.0,0.0,0.0
12/04/2022,02:37:49,0.002,0.0,0.0,0.0
12/04/2022,02:38:49,0.002,0.0,0.0,0.0
12/04/2022,02:39:49,0.002,0.0,0.0,0.0
12/04/2022,02:40:49,0.002,0.0,0.0,0.0
12/04/2022,02:41:49,0.002,0.0,0.0,0.0
12/04/2022,02:42:50,0.001,0.0,0.0,0.0
12/04/2022,02:43:49,0.002,0.0,0.0,0.0
12/04/2022,02:44:49,0.002,0.0,0.0,0.0
12/04/2022,02:45:50,0.001,0.0,0.0,0.0
12/04/2022,02:46:49,0.001,0.0,0.0,0.0
12/04/2022,02:47:51,0.002,0.0,0.0,0.0
12/04/2022,02:48:49,0.001,0.0,0.0,0.0
12/04/2022,02:49:49,0.002,0.0,0.0,0.0
12/04/2022,02:50:49,0.002,0.0,0.0,0.0
12/04/2022,02:51:49,0.001,0.0,0.0,0.0
12/04/2022,02:52:49,0.002,0.0,0.0,0.0
12/04/2022,02:53:50,0.001,0.0,0.0,0.0
12/04/2022,02:54:49,0.001,0.0,0.0,0.0
12/04/2022,02:55:49,0.002,0.0,0.0,0.0
12/04/2022,02:56:49,0.002,0.0,0.0,0.0
12/04/2022,02:57:49,0.002,0.0,0.0,0.0
12/04/2022,02:58:40,0.002,0.0,0.0,0.0
12/04/2022,02:59:50,0.002,0.0,0.0,0.0
12/04/2022,03:00:49,0.001,0.0,0.0,0.0
12/04/2022,03:01:49,0.002,0.0,0.0,0.0
12/04/2022,03:02:49,0.002,0.0,0.0,0.0
12/04/2022,03:03:49,0.002,0.0,0.0,0.0
12/04/2022,03:04:49,0.002,0.0,0.0,0.0
12/04/2022,03:05:49,0.002,0.0,0.0,0.0
12/04/2022,03:06:49,0.003,0.0,0.0,0.0
12/04/2022,03:07:49,0.002,0.0,0.0,0.0
12/04/2022,03:08:49,0.002,0.0,0.0,0.0
12/04/2022,03:09:49,0.003,0.0,0.0,0.0
12/04/2022,03:10:57,0.003,0.0,0.0,0.0
12/04/2022,03:12:50,0.003,0.0,0.0,0.0
12/04/2022,03:13:49,0.003,0.0,0.0,0.0
12/04/2022,03:14:49,0.002,0.0,0.0,0.0
12/04/2022,03:15:49,0.002,0.0,0.0,0.0
12/04/2022,03:16:49,0.002,0.0,0.0,0.0
12/04/2022,03:17:57,0.001,0.0,0.0,0.0
12/04/2022,03:19:49,0.002,0.0,0.0,0.0
12/04/2022,03:20:49,0.002,0.0,0.0,0.0
12/04/2022,03:21:49,0.002,0.0,0.0,0.0
12/04/2022,03:22:49,0.002,0.0,0.0,0.0
12/04/2022,03:23:49,0.002,0.0,0.0,0.0
12/04/2022,03:24:49,0.002,0.0,0.0,0.0
12/04/2022,03:25:49,0.002,0.0,0.0,0.0
12/04/2022,03:26:49,0.002,0.0,0.0,0.0
12/04/2022,03:27:49,0.002,0.0,0.0,0.0
12/04/2022,03:28:50,0.001,0.0,0.0,0.0
12/04/2022,03:29:49,0.001,0.0,0.0,0.0
12/04/2022,03:30:49,0.003,0.0,0.0,0.0
12/04/2022,03:31:57,0.002,0.0,0.0,0.0
12/04/2022,03:33:50,0.001,0.0,0.0,0.0
12/04/2022,03:34:50,0.001,0.0,0.0,0.0
12/04/2022,03:35:51,0.002,0.0,0.0,0.0
12/04/2022,03:36:49,0.003,0.0,0.0,0.0
12/04/2022,03:37:49,0.001,0.0,0.0,0.0
12/04/2022,03:38:57,0.002,0.0,0.0,0.0
12/04/2022,03:40:50,0.001,0.0,0.0,0.0
12/04/2022,03:41:49,0.003,0.0,0.0,0.0
12/04/2022,03:42:49,0.002,0.0,0.0,0.0
12/04/2022,03:43:49,0.002,0.0,0.0,0.0
12/04/2022,03:44:49,0.001,0.0,0.0,0.0
12/04/2022,03:45:50,0.003,0.0,0.0,0.0
12/04/2022,03:46:49,0.001,0.0,0.0,0.0
12/04/2022,03:47:49,0.001,0.0,0.0,0.0
12/04/2022,03:48:57,0.001,0.0,0.0,0.0
12/04/2022,03:49:57,0.002,0.0,0.0,0.0
12/04/2022,03:50:49,0.002,0.0,0.0,0.0
12/04/2022,03:51:49,0.002,0.0,0.0,0.0
12/04/2022,03:52:49,0.002,0.0,0.0,0.0
12/04/2022,03:53:50,0.002,0.0,0.0,0.0
12/04/2022,03:54:49,0.002,0.0,0.0,0.0
12/04/2022,03:55:49,0.002,0.0,0.0,0.0
12/04/2022,03:56:57,0.001,0.0,0.0,0.0
12/04/2022,03:57:48,0.002,0.0,0.0,0.0
12/04/2022,03:58:49,0.002,0.0,0.0,0.0
12/04/2022,03:59:58,0.003,0.0,0.0,0.0
12/04/2022,04:00:49,0.001,0.0,0.0,0.0
12/04/2022,04:01:49,0.002,0.0,0.0,0.0
12/04/2022,04:02:49,0.002,0.0,0.0,0.0
12/04/2022,04:03:49,0.001,0.0,0.0,0.0
12/04/2022,04:04:49,0.003,0.0,0.0,0.0
12/04/2022,04:05:49,0.002,0.0,0.0,0.0
12/04/2022,04:06:49,0.001,0.0,0.0,0.0
12/04/2022,04:07:50,0.002,0.0,0.0,0.0
12/04/2022,04:08:50,0.002,0.0,0.0,0.0
12/04/2022,04:09:57,0.002,0.0,0.0,0.0
12/04/2022,04:11:58,0.002,0.0,0.0,0.0
12/04/2022,04:13:50,0.003,0.0,0.0,0.0
12/04/2022,04:14:49,0.002,0.0,0.0,0.0
12/04/2022,04:15:49,0.001,0.0,0.0,0.0
12/04/2022,04:16:49,0.003,0.0,0.0,0.0
12/04/2022,04:17:58,0.002,0.0,0.0,0.0
12/04/2022,04:19:50,0.003,0.0,0.0,0.0
12/04/2022,04:20:49,0.002,0.0,0.0,0.0
12/04/2022,04:21:50,0.001,0.0,0.0,0.0
12/04/2022,04:22:49,0.001,0.0,0.0,0.0
12/04/2022,04:23:49,0.002,0.0,0.0,0.0
12/04/2022,04:24:57,0.002,0.0,0.0,0.0
12/04/2022,04:26:50,0.001,0.0,0.0,0.0
12/04/2022,04:27:49,0.003,0.0,0.0,0.0
12/04/2022,04:28:49,0.002,0.0,0.0,0.0
12/04/2022,04:29:49,0.002,0.0,0.0,0.0
12/04/2022,04:30:49,0.002,0.0,0.0,0.0
12/04/2022,04:31:49,0.002,0.0,0.0,0.0
12/04/2022,04:32:49,0.002,0.0,0.0,0.0
12/04/2022,04:33:49,0.001,0.0,0.0,0.0
12/04/2022,04:34:51,0.002,0.0,0.0,0.0
12/04/2022,04:35:50,0.002,0.0,0.0,0.0
12/04/2022,04:36:49,0.002,0.0,0.0,0.0
12/04/2022,04:37:49,0.002,0.0,0.0,0.0
12/04/2022,04:38:49,0.002,0.0,0.0,0.0
12/04/2022,04:39:50,0.003,0.0,0.0,0.0
12/04/2022,04:40:49,0.003,0.0,0.0,0.0
12/04/2022,04:41:49,0.002,0.0,0.0,0.0
12/04/2022,04:42:57,0.001,0.0,0.0,0.0
12/04/2022,04:43:49,0.002,0.0,0.0,0.0
12/04/2022,04:44:49,0.002,0.0,0.0,0.0
12/04/2022,04:45:49,0.001,0.0,0.0,0.0
12/04/2022,04:46:49,0.002,0.0,0.0,0.0
12/04/2022,04:47:49,0.002,0.0,0.0,0.0
12/04/2022,04:48:50,0.002,0.0,0.0,0.0
12/04/2022,04:49:49,0.002,0.0,0.0,0.0
12/04/2022,04:50:49,0.001,0.0,0.0,0.0
12/04/2022,04:51:50,0.002,0.0,0.0,0.0
12/04/2022,04:52:58,0.002,0.0,0.0,0.0
12/04/2022,04:54:50,0.002,0.0,0.0,0.0
12/04/2022,04:55:49,0.003,0.0,0.0,0.0
12/04/2022,04:56:49,0.002,0.0,0.0,0.0
12/04/2022,04:57:49,0.002,0.0,0.0,0.0
12/04/2022,04:58:57,0.003,0.0,0.0,0.0
12/04/2022,04:59:48,0.001,0.0,0.0,0.0
12/04/2022,05:00:49,0.002,0.0,0.0,0.0
12/04/2022,05:01:49,0.002,0.0,0.0,0.0
12/04/2022,05:02:50,0.002,0.0,0.0,0.0
12/04/2022,05:03:49,0.001,0.0,0.0,0.0
12/04/2022,05:04:50,0.002,0.0,0.0,0.0
12/04/2022,05:05:49,0.002,0.0,0.0,0.0
12/04/2022,05:06:50,0.001,0.0,0.0,0.0
12/04/2022,05:07:49,0.002,0.0,0.0,0.0
12/04/2022,05:08:49,0.002,0.0,0.0,0.0
12/04/2022,05:09:49,0.003,0.0,0.0,0.0
12/04/2022,05:10:58,0.001,0.0,0.0,0.0
12/04/2022,05:12:50,0.002,0.0,0.0,0.0
12/04/2022,05:13:49,0.002,0.0,0.0,0.0
12/04/2022,05:14:49,0.002,0.0,0.0,0.0
12/04/2022,05:15:49,0.003,0.0,0.0,0.0
12/04/2022,05:16:50,0.001,0.0,0.0,0.0
12/04/2022,05:17:50,0.001,0.0,0.0,0.0
12/04/2022,05:18:49,0.003,0.0,0.0,0.0
12/04/2022,05:19:50,0.002,0.0,0.0,0.0
12/04/2022,05:20:57,0.003,0.0,0.0,0.0
12/04/2022,05:21:49,0.003,0.0,0.0,0.0
12/04/2022,05:22:50,0.003,0.0,0.0,0.0
12/04/2022,05:23:49,0.003,0.0,0.0,0.0
12/04/2022,05:24:49,0.003,0.0,0.0,0.0
12/04/2022,05:25:49,0.004,0.0,0.0,0.0
12/04/2022,05:26:50,0.003,0.0,0.0,0.0
12/04/2022,05:27:49,0.004,0.0,0.0,0.0
12/04/2022,05:28:49,0.004,0.0,0.0,0.0
12/04/2022,05:29:50,0.003,0.0,0.0,0.0
12/04/2022,05:30:49,0.004,0.0,0.0,0.0
12/04/2022,05:31:49,0.005,0.0,0.0,0.0
12/04/2022,05:32:50,0.004,0.0,0.0,0.0
12/04/2022,05:33:50,0.004,0.0,0.0,0.0
12/04/2022,05:34:49,0.004,0.0,0.0,0.0
12/04/2022,05:35:50,0.005,0.0,0.0,0.0
12/04/2022,05:36:49,0.004,0.0,0.0,0.0
12/04/2022,05:37:58,0.005,0.0,0.0,0.0
12/04/2022,05:39:50,0.006,0.0,0.0,0.0
12/04/2022,05:40:50,0.006,0.0,0.0,0.0
12/04/2022,05:41:58,0.006,0.0,0.0,0.0
12/04/2022,05:42:50,0.006,0.0,0.0,0.0
12/04/2022,05:43:49,0.007,0.0,0.0,0.0
12/04/2022,05:44:50,0.007,0.0,0.0,0.0
12/04/2022,05:45:49,0.007,0.0,0.001,0.001
12/04/2022,05:46:50,0.007,0.0,0.001,0.0
12/04/2022,05:47:50,0.007,0.0,0.001,0.0
12/04/2022,05:48:50,0.007,0.0,0.001,0.0
12/04/2022,05:49:49,0.007,0.0,0.001,0.0
12/04/2022,05:50:49,0.007,0.0,0.001,0.0
12/04/2022,05:51:50,0.008,0.0,0.001,0.0
12/04/2022,05:52:49,0.008,0.0,0.001,0.0
12/04/2022,05:53:49,0.007,0.0,0.002,0.001
12/04/2022,05:54:50,0.008,0.0,0.002,0.0
12/04/2022,05:55:50,0.008,0.0,0.002,0.0
12/04/2022,05:56:58,0.009,0.0,0.002,0.0
12/04/2022,05:58:51,0.008,0.0,0.002,0.0
12/04/2022,05:59:49,0.009,0.0,0.002,0.0
12/04/2022,06:00:50,0.007,0.0,0.003,0.001
12/04/2022,06:01:49,0.007,0.0,0.003,0.0
12/04/2022,06:02:49,0.007,0.0,0.003,0.0
12/04/2022,06:03:49,0.006,0.0,0.003,0.0
12/04/2022,06:04:50,0.005,0.0,0.003,0.0
12/04/2022,06:05:49,0.006,0.0,0.003,0.0
12/04/2022,06:06:58,0.005,0.0,0.003,0.0
12/04/2022,06:08:50,0.005,0.0,0.003,0.0
12/04/2022,06:09:50,0.005,0.0,0.003,0.0
12/04/2022,06:10:49,0.004,0.0,0.003,0.0
12/04/2022,06:11:50,0.004,0.0,0.003,0.0
12/04/2022,06:12:50,0.005,0.0,0.003,0.0
12/04/2022,06:13:50,0.005,0.0,0.003,0.0
12/04/2022,06:14:58,0.006,0.0,0.003,0.0
12/04/2022,06:16:50,0.005,0.0,0.003,0.0
12/04/2022,06:17:50,0.004,0.0,0.003,0.0
12/04/2022,06:18:50,0.004,0.0,0.003,0.0
12/04/2022,06:19:49,0.005,0.0,0.003,0.0
12/04/2022,06:20:50,0.004,0.0,0.003,0.0
12/04/2022,06:21:50,0.005,0.0,0.003,0.0
12/04/2022,06:22:51,0.004,0.0,0.003,0.0
12/04/2022,06:23:49,0.006,0.0,0.003,0.0
12/04/2022,06:24:50,0.007,0.0,0.003,0.0
12/04/2022,06:25:50,0.007,0.0,0.003,0.0
12/04/2022,06:26:49,0.008,0.0,0.003,0.0
12/04/2022,06:27:58,0.008,0.0,0.004,0.001
12/04/2022,06:28:58,0.008,0.0,0.004,0.0
12/04/2022,06:29:50,0.007,0.0,0.004,0.0
12/04/2022,06:30:49,0.007,0.0,0.004,0.0
12/04/2022,06:31:50,0.009,0.0,0.004,0.0
12/04/2022,06:32:49,0.007,0.0,0.004,0.0
12/04/2022,06:33:49,0.008,0.0,0.004,0.0
12/04/2022,06:34:49,0.010,0.0,0.004,0.0
12/04/2022,06:35:50,0.011,0.0,0.005,0.001
12/04/2022,06:36:50,0.012,0.0,0.005,0.0
12/04/2022,06:37:50,0.014,0.0,0.005,0.0
12/04/2022,06:38:50,0.016,0.0,0.005,0.0
12/04/2022,06:39:49,0.017,0.0,0.006,0.001
12/04/2022,06:40:49,0.017,0.0,0.006,0.0
12/04/2022,06:41:50,0.018,0.0,0.006,0.0
12/04/2022,06:42:58,0.018,0.0,0.007,0.001
12/04/2022,06:44:50,0.017,0.0,0.007,0.0
12/04/2022,06:45:49,0.017,0.0,0.007,0.0
12/04/2022,06:46:51,0.018,0.0,0.008,0.001
12/04/2022,06:47:50,0.019,0.0,0.008,0.0
12/04/2022,06:48:49,0.017,0.0,0.008,0.0
12/04/2022,06:49:49,0.018,0.0,0.009,0.001
12/04/2022,06:50:58,0.017,0.0,0.009,0.0
12/04/2022,06:52:50,0.017,0.0,0.009,0.0
12/04/2022,06:53:49,0.018,0.0,0.01,0.001
12/04/2022,06:54:50,0.019,0.0,0.01,0.0
12/04/2022,06:55:50,0.019,0.0,0.01,0.0
12/04/2022,06:56:49,0.019,0.0,0.011,0.001
12/04/2022,06:57:49,0.019,0.0,0.011,0.0
12/04/2022,06:58:50,0.020,0.0,0.011,0.0
12/04/2022,06:59:50,0.020,0.0,0.012,0.001
12/04/2022,07:00:49,0.022,0.0,0.012,0.0
12/04/2022,07:01:50,0.022,0.0,0.012,0.0
12/04/2022,07:02:50,0.025,0.0,0.013,0.001
12/04/2022,07:03:57,0.028,0.0,0.013,0.0
12/04/2022,07:04:50,0.030,0.0,0.014,0.001
12/04/2022,07:05:50,0.034,0.0,0.014,0.0
12/04/2022,07:06:49,0.037,0.0,0.015,0.001
12/04/2022,07:07:50,0.039,0.0,0.015,0.0
12/04/2022,07:08:50,0.042,0.0,0.016,0.001
12/04/2022,07:09:50,0.045,0.0,0.017,0.001
12/04/2022,07:10:50,0.047,0.0,0.018,0.001
12/04/2022,07:11:49,0.050,0.0,0.018,0.0
12/04/2022,07:12:49,0.052,0.0,0.019,0.001
12/04/2022,07:13:50,0.055,0.0,0.02,0.001
12/04/2022,07:14:49,0.059,0.0,0.021,0.001
12/04/2022,07:15:49,0.062,0.0,0.022,0.001
12/04/2022,07:16:49,0.064,0.0,0.023,0.001
12/04/2022,07:17:49,0.064,0.0,0.024,0.001
12/04/2022,07:18:50,0.064,0.0,0.025,0.001
12/04/2022,07:19:49,0.066,0.0,0.026,0.001
12/04/2022,07:20:49,0.071,0.0,0.027,0.001
12/04/2022,07:21:49,0.080,0.0,0.029,0.002
12/04/2022,07:22:50,0.091,0.0,0.03,0.001
12/04/2022,07:23:50,0.101,0.0,0.032,0.002
12/04/2022,07:24:50,0.110,0.0,0.034,0.002
12/04/2022,07:25:49,0.119,0.0,0.035,0.001
12/04/2022,07:26:50,0.128,0.0,0.037,0.002
12/04/2022,07:27:50,0.134,0.0,0.04,0.003
12/04/2022,07:28:49,0.139,0.0,0.042,0.002
12/04/2022,07:29:49,0.142,0.0,0.044,0.002
12/04/2022,07:30:49,0.143,0.0,0.047,0.003
12/04/2022,07:31:49,0.145,0.0,0.049,0.002
12/04/2022,07:33:15,0.147,0.0,0.052,0.003
12/04/2022,07:34:50,0.150,0.0,0.056,0.004
12/04/2022,07:35:50,0.150,0.0,0.059,0.003
12/04/2022,07:36:50,0.148,0.0,0.061,0.002
12/04/2022,07:37:49,0.143,0.0,0.064,0.003
12/04/2022,07:38:50,0.138,0.0,0.066,0.002
12/04/2022,07:39:50,0.130,0.0,0.068,0.002
12/04/2022,07:40:50,0.125,0.0,0.071,0.003
12/04/2022,07:41:50,0.121,0.0,0.073,0.002
12/04/2022,07:42:58,0.123,0.0,0.075,0.002
12/04/2022,07:44:50,0.120,0.0,0.079,0.004
12/04/2022,07:46:03,0.113,0.0,0.081,0.002
12/04/2022,07:47:50,0.096,0.0,0.084,0.003
12/04/2022,07:48:50,0.087,0.0,0.086,0.002
12/04/2022,07:49:50,0.081,0.0,0.087,0.001
12/04/2022,07:50:49,0.076,0.0,0.088,0.001
12/04/2022,07:51:51,0.080,0.0,0.09,0.002
12/04/2022,07:52:49,0.086,0.0,0.091,0.001
12/04/2022,07:53:58,0.094,0.0,0.093,0.002
12/04/2022,07:55:51,0.114,0.0,0.096,0.003
12/04/2022,07:56:50,0.127,0.0,0.098,0.002
12/04/2022,07:57:50,0.138,0.0,0.1,0.002
12/04/2022,07:58:49,0.144,0.0,0.103,0.003
12/04/2022,07:59:49,0.143,0.0,0.105,0.002
12/04/2022,08:00:51,0.138,0.0,0.107,0.002
12/04/2022,08:01:49,0.131,0.0,0.11,0.003
12/04/2022,08:02:49,0.121,0.0,0.112,0.002
12/04/2022,08:03:58,0.111,0.0,0.114,0.002
12/04/2022,08:05:58,0.083,0.0,0.117,0.003
12/04/2022,08:07:51,0.064,0.0,0.119,0.002
12/04/2022,08:08:50,0.060,0.0,0.12,0.001
12/04/2022,08:09:51,0.057,0.0,0.121,0.001
12/04/2022,08:10:50,0.056,0.0,0.122,0.001
12/04/2022,08:11:50,0.053,0.0,0.123,0.001
12/04/2022,08:12:49,0.053,0.0,0.124,0.001
12/04/2022,08:13:49,0.052,0.0,0.125,0.001
12/04/2022,08:14:58,0.049,0.0,0.126,0.001
12/04/2022,08:16:50,0.046,0.0,0.127,0.001
12/04/2022,08:17:50,0.049,0.0,0.128,0.001
12/04/2022,08:18:50,0.051,0.0,0.129,0.001
12/04/2022,08:19:49,0.053,0.0,0.13,0.001
12/04/2022,08:20:50,0.056,0.0,0.131,0.001
12/04/2022,08:21:50,0.059,0.0,0.132,0.001
12/04/2022,08:22:50,0.064,0.0,0.133,0.001
12/04/2022,08:23:49,0.069,0.0,0.134,0.001
12/04/2022,08:24:49,0.072,0.0,0.135,0.001
12/04/2022,08:25:50,0.075,0.0,0.136,0.001
12/04/2022,08:26:50,0.079,0.0,0.138,0.002
12/04/2022,08:27:50,0.086,0.0,0.139,0.001
12/04/2022,08:28:49,0.096,0.0,0.14,0.001
12/04/2022,08:29:50,0.107,0.0,0.142,0.002
12/04/2022,08:30:50,0.120,0.0,0.144,0.002
12/04/2022,08:31:49,0.132,0.0,0.146,0.002
12/04/2022,08:32:50,0.151,0.0,0.148,0.002
12/04/2022,08:33:50,0.167,0.0,0.151,0.003
12/04/2022,08:34:50,0.172,0.0,0.154,0.003
12/04/2022,08:35:50,0.171,0.0,0.157,0.003
12/04/2022,08:36:50,0.165,0.0,0.16,0.003
12/04/2022,08:37:50,0.163,0.0,0.162,0.002
12/04/2022,08:38:49,0.167,0.0,0.165,0.003
12/04/2022,08:39:58,0.176,0.0,0.168,0.003
12/04/2022,08:40:50,0.181,0.0,0.171,0.003
12/04/2022,08:41:49,0.190,0.0,0.174,0.003
12/04/2022,08:42:58,0.204,0.0,0.178,0.004
12/04/2022,08:43:50,0.212,0.0,0.181,0.003
12/04/2022,08:44:50,0.220,1.0,0.184,0.003
12/04/2022,08:45:49,0.225,1.0,0.188,0.004
12/04/2022,08:46:50,0.227,1.0,0.192,0.004
12/04/2022,08:47:49,0.221,1.0,0.196,0.004
12/04/2022,08:48:50,0.210,0.0,0.199,0.003
12/04/2022,08:49:50,0.199,0.0,0.203,0.004
12/04/2022,08:50:49,0.194,0.0,0.206,0.003
12/04/2022,08:51:49,0.201,0.0,0.209,0.003
12/04/2022,08:52:50,0.216,0.0,0.213,0.004
12/04/2022,08:53:49,0.230,1.0,0.216,0.003
12/04/2022,08:54:51,0.240,1.0,0.22,0.004
12/04/2022,08:55:50,0.241,1.0,0.224,0.004
12/04/2022,08:56:50,0.239,1.0,0.228,0.004
12/04/2022,08:57:50,0.231,1.0,0.232,0.004
12/04/2022,08:58:50,0.216,0.0,0.236,0.004
12/04/2022,08:59:50,0.217,0.0,0.24,0.004
12/04/2022,09:01:00,0.224,1.0,0.244,0.004
12/04/2022,09:02:50,0.210,0.0,0.251,0.007
12/04/2022,09:03:50,0.198,0.0,0.254,0.003
12/04/2022,09:04:50,0.186,0.0,0.257,0.003
12/04/2022,09:05:50,0.180,0.0,0.26,0.003
12/04/2022,09:06:50,0.180,0.0,0.263,0.003
12/04/2022,09:07:50,0.180,0.0,0.266,0.003
12/04/2022,09:08:50,0.183,0.0,0.269,0.003
12/04/2022,09:09:50,0.186,0.0,0.272,0.003
12/04/2022,09:10:58,0.191,0.0,0.276,0.004
12/04/2022,09:11:57,0.197,0.0,0.279,0.003
12/04/2022,09:12:50,0.190,0.0,0.282,0.003
12/04/2022,09:13:50,0.175,0.0,0.285,0.003
12/04/2022,09:14:50,0.167,0.0,0.288,0.003
12/04/2022,09:15:50,0.164,0.0,0.291,0.003
12/04/2022,09:16:50,0.169,0.0,0.293,0.002
12/04/2022,09:17:50,0.179,0.0,0.296,0.003
12/04/2022,09:18:49,0.187,0.0,0.299,0.003
12/04/2022,09:19:50,0.198,0.0,0.302,0.003
12/04/2022,09:20:49,0.209,0.0,0.306,0.004
12/04/2022,09:21:58,0.215,0.0,0.31,0.004
12/04/2022,09:23:51,0.205,0.0,0.316,0.006
12/04/2022,09:24:50,0.208,0.0,0.32,0.004
12/04/2022,09:25:50,0.221,1.0,0.323,0.003
12/04/2022,09:26:49,0.233,1.0,0.327,0.004
12/04/2022,09:27:49,0.246,1.0,0.331,0.004
12/04/2022,09:28:49,0.273,1.0,0.335,0.004
12/04/2022,09:29:49,0.304,1.0,0.34,0.005
12/04/2022,09:30:50,0.333,1.0,0.346,0.006
12/04/2022,09:31:58,0.355,1.0,0.352,0.006
12/04/2022,09:33:59,0.397,1.0,0.365,0.013
12/04/2022,09:35:50,0.415,1.0,0.377,0.012
12/04/2022,09:36:50,0.411,1.0,0.384,0.007
12/04/2022,09:37:50,0.387,1.0,0.391,0.007
12/04/2022,09:38:50,0.347,1.0,0.397,0.006
12/04/2022,09:39:59,0.302,1.0,0.403,0.006
12/04/2022,09:41:50,0.278,1.0,0.412,0.009
12/04/2022,09:42:50,0.295,1.0,0.417,0.005
12/04/2022,09:43:50,0.322,1.0,0.422,0.005
12/04/2022,09:44:50,0.344,1.0,0.427,0.005
12/04/2022,09:45:51,0.350,1.0,0.433,0.006
12/04/2022,09:46:50,0.361,1.0,0.439,0.006
12/04/2022,09:47:50,0.372,1.0,0.445,0.006
12/04/2022,09:48:50,0.391,1.0,0.452,0.007
12/04/2022,09:49:58,0.432,1.0,0.459,0.007
12/04/2022,09:51:51,0.514,1.0,0.474,0.015
12/04/2022,09:52:59,0.600,1.0,0.485,0.011
12/04/2022,09:54:51,0.711,2.0,0.506,0.021
12/04/2022,09:55:50,0.760,2.0,0.518,0.012
12/04/2022,09:56:50,0.742,2.0,0.53,0.012
12/04/2022,09:57:49,0.813,2.0,0.544,0.014
12/04/2022,09:58:50,0.718,2.0,0.557,0.013
12/04/2022,09:59:50,0.677,2.0,0.569,0.012
12/04/2022,10:00:50,0.633,1.0,0.58,0.011
12/04/2022,10:01:50,0.599,1.0,0.59,0.01
12/04/2022,10:02:50,0.595,1.0,0.6,0.01
12/04/2022,10:03:50,0.577,1.0,0.61,0.01
12/04/2022,10:04:50,0.574,1.0,0.619,0.009
12/04/2022,10:05:50,0.582,1.0,0.629,0.01
12/04/2022,10:06:57,0.609,1.0,0.64,0.011
12/04/2022,10:07:49,0.623,1.0,0.649,0.009
12/04/2022,10:08:49,0.636,1.0,0.66,0.011
12/04/2022,10:09:50,0.649,1.0,0.67,0.01
12/04/2022,10:10:43,0.680,2.0,0.68,0.01
12/04/2022,10:11:52,0.721,2.0,0.693,0.013
12/04/2022,10:12:50,0.839,2.0,0.706,0.013
12/04/2022,10:13:50,0.935,2.0,0.722,0.016
12/04/2022,10:14:50,0.926,2.0,0.737,0.015
12/04/2022,10:15:50,1.143,3.0,0.755,0.018
12/04/2022,10:16:50,1.060,2.0,0.773,0.018
12/04/2022,10:17:50,0.951,2.0,0.789,0.016
12/04/2022,10:18:50,1.079,2.0,0.805,0.016
12/04/2022,10:19:49,0.876,2.0,0.82,0.015
12/04/2022,10:20:50,0.896,2.0,0.837,0.017
12/04/2022,10:21:50,0.869,2.0,0.851,0.014
12/04/2022,10:22:50,0.849,2.0,0.866,0.015
12/04/2022,10:23:50,0.825,2.0,0.88,0.014
12/04/2022,10:24:58,0.830,2.0,0.896,0.016
12/04/2022,10:26:51,0.771,2.0,0.921,0.025
12/04/2022,10:27:58,0.753,2.0,0.935,0.014
12/04/2022,10:29:50,0.723,2.0,0.958,0.023
12/04/2022,10:30:50,0.709,2.0,0.97,0.012
12/04/2022,10:31:50,0.709,2.0,0.982,0.012
12/04/2022,10:32:50,0.718,2.0,0.994,0.012
12/04/2022,10:33:50,0.713,2.0,1.006,0.012
12/04/2022,10:34:58,0.717,2.0,1.019,0.013
12/04/2022,10:35:49,0.728,2.0,1.03,0.011
12/04/2022,10:36:49,0.726,2.0,1.042,0.012
12/04/2022,10:37:49,0.752,2.0,1.054,0.012
12/04/2022,10:38:50,0.808,2.0,1.067,0.013
12/04/2022,10:39:50,0.900,2.0,1.082,0.015
12/04/2022,10:40:50,0.984,2.0,1.099,0.017
12/04/2022,10:41:50,1.260,3.0,1.117,0.018
12/04/2022,10:42:50,1.281,3.0,1.136,0.019
12/04/2022,10:43:50,0.946,2.0,1.155,0.019
12/04/2022,10:44:58,0.904,2.0,1.173,0.018
12/04/2022,10:45:58,0.997,2.0,1.189,0.016
12/04/2022,10:46:50,0.905,2.0,1.203,0.014
12/04/2022,10:47:50,0.932,2.0,1.219,0.016
12/04/2022,10:48:50,0.990,2.0,1.235,0.016
12/04/2022,10:49:50,1.092,3.0,1.253,0.018